Location: Platte
(43.3870°N, 98.8440°W)
Time: 10:28:40
(UTC-06:00)

Daily predictions for brighter satellites

Satellite Brightness Start Highest point End
(mag) Time Altitude Azimuth Time Altitude Azimuth Time Altitude Azimuth
NOSS 3-2 (A) 4.2 17:16:58 10° NNW 17:24:14 53° NE 17:32:09 10° ESE
Meteor 1-19 Rocket 4.5 17:21:32 10° S 17:27:03 53° E 17:32:41 10° NNE
MSX 4.0 17:22:19 10° SSE 17:28:07 87° W 17:33:55 10° NNW
Cosmos 2227 Rocket 2.2 17:23:38 10° NNW 17:29:19 66° ENE 17:34:54 10° SE
Abrixas rocket 3.2 17:27:24 10° WNW 17:30:25 34° N 17:33:26 10° ENE
Cosmos 1975 Rocket 3.4 17:26:00 10° SSW 17:30:28 73° W 17:34:58 10° N
NOSS 3-2 (C) 4.2 17:26:02 10° NNW 17:33:11 48° NE 17:40:59 10° ESE
ATLAS 3B R/B 2.7 17:28:01 10° NW 17:34:45 88° NE 17:41:18 10° SE
IDEFIX/ARIANE 42P 3.9 17:34:23 10° S 17:39:20 45° W 17:44:18 10° NNW
Cosmos 158 Rocket 3.8 17:34:52 10° NNW 17:39:57 70° ENE 17:44:52 10° SSE
Cosmos 1271 Rocket 2.7 17:36:15 10° N 17:40:05 88° W 17:43:57 10° S
ATLAS 2AS CENTAUR R/B 3.4 17:32:31 10° SW 17:40:19 72° NW 17:48:30 10° NE
Cosmos 2279 Rocket 4.1 17:37:00 10° S 17:43:16 84° W 17:49:34 10° N
NOSS 8 (A) 4.3 17:40:12 10° SSW 17:43:28 66° SE 17:46:44 10° NE
ISS -1.1 17:40:50 10° W 17:43:32 24° SW 17:46:14 10° SSE
Meteor 2-9 Rocket 4.2 17:38:23 10° N 17:43:47 56° ENE 17:49:02 10° SSE
Cosmos 1025 Rocket 4.5 17:41:53 10° SE 17:44:47 18° E 17:47:40 10° NE
Cosmos 1980 Rocket 3.5 17:42:10 10° SSE 17:46:17 21° E 17:50:25 10° NE
Cosmos 1656 3.8 17:45:39 10° S 17:51:05 59° ESE 17:56:30 10° NNE
Cosmos 1666 2.9 17:48:01 10° NNW 17:51:45 72° W 17:55:28 10° S
USA 215 3.2 17:45:22 10° ESE 17:51:53 76° NE 17:58:26 10° NW
Cosmos 2297 Rocket 2.2 17:49:50 10° NNW 17:55:32 89° ENE 18:01:12 10° SSE
DELTA 2 R/B (1) 4.1 17:51:09 10° W 17:56:35 57° S 18:02:03 10° ESE
CZ-2C R/B 4.2 17:53:24 10° NNE 17:57:53 43° E 18:02:24 10° S
Cosmos 1536 Rocket 3.5 17:54:26 10° S 17:58:44 69° E 18:03:04 10° NNE
CZ-2C R/B 4.2 17:56:14 10° SSW 18:01:02 38° W 18:05:50 10° NNW
NOSS 3-4 (A) 3.8 17:56:02 10° S 18:01:56 48° ESE 18:07:29 13° NE
NOSS 3-4 (C) 3.8 17:56:07 10° S 18:02:01 47° ESE 18:07:33 13° NE
Meteor 1-23 Rocket 4.5 17:56:53 10° SSE 18:02:23 50° E 18:07:51 10° NNE
Cosmos 1484 Rocket 3.0 18:01:04 10° S 18:05:05 80° WSW 18:09:07 10° NNW
USA 161 4.1 18:07:06 10° NNW 18:09:27 21° WNW 18:11:50 10° WSW
CENTAUR R/B 3.5 18:05:31 10° NNW 18:12:48 42° NE 18:20:38 10° ESE
SKYMED 2 4.2 18:09:36 10° NNE 18:13:32 36° E 18:17:32 10° SSE
DNEPR-1 R/B 4.4 18:08:59 10° NNW 18:13:48 44° NE 18:19:35 10° ESE
SMAP 3.4 18:12:28 10° S 18:17:06 69° WSW 18:21:46 10° NNW
METEOR-M 4.1 18:17:48 10° SSE 18:23:05 68° ENE 18:28:25 10° N
CZ-4 R/B 4.3 18:21:19 10° SSE 18:25:26 72° ENE 18:29:34 10° N
Lacrosse 5 rocket 3.7 18:25:11 10° SE 18:25:21 10° SE 18:25:21 10° SE
FENGYUN 3A 3.9 18:21:42 10° SE 18:26:48 46° ENE 18:31:54 10° N
Cosmos 2263 Rocket 3.6 18:24:33 10° N 18:27:54 18° NE 18:27:54 18° NE
Meteor 2-4 Rocket 4.0 18:22:58 10° SSW 18:28:20 67° WNW 18:33:41 10° N
BREEZE-M DEB (TANK) 3.6 18:26:12 10° WNW 18:28:41 35° NNE 18:30:38 24° ENE
Meteor 1-28 Rocket 3.7 18:25:34 10° N 18:29:17 61° WNW 18:33:01 10° SSW
SL-16 R/B 3.8 18:27:13 10° SE 18:29:37 15° ESE 18:29:37 15° ESE
NOSS 2-2 (C) 4.4 18:28:36 10° S 18:31:52 26° ESE 18:32:18 25° ESE
ALOS 2.4 18:28:40 10° SSE 18:33:10 50° ENE 18:37:41 10° N
Cosmos 2322 Rocket 3.8 18:30:43 10° SE 18:32:59 16° ESE 18:32:59 16° ESE
IRS-1A Rocket 4.3 18:28:35 10° SSE 18:34:10 82° WSW 18:39:43 10° NNW
Cosmos 2278 4.2 18:29:39 10° SW 18:35:15 59° WNW 18:40:55 10° NNE
Ariane Rocket 4.1 18:30:25 10° S 18:35:16 47° W 18:40:10 10° NNW
Cosmos 2369 4.3 18:29:57 10° SW 18:35:32 56° WNW 18:41:10 10° NNE
USA 116 3.4 18:34:14 14° N 18:36:47 66° WNW 18:39:51 10° SSW
Gblst 52 Del rocket 4.2 18:31:16 10° WNW 18:36:54 90° SSW 18:42:41 12° SE
Cosmos 494 Rocket 3.9 18:32:42 10° NNW 18:37:57 63° ENE 18:43:08 10° SSE
SPOT 3 Rocket 3.5 18:34:28 10° SSE 18:39:32 59° ENE 18:44:37 10° N
Cosmos 2360 4.3 18:36:01 10° S 18:41:34 54° ESE 18:44:44 25° NE
Cosmos 1515 3.6 18:38:48 10° S 18:42:35 85° W 18:45:37 16° N
RESURS DK-1 2.8 18:38:50 10° S 18:42:40 39° ESE 18:43:08 38° E
Cosmos 1184 Rocket 4.2 18:40:16 10° SSE 18:41:55 24° SE 18:41:55 24° SE
Cosmos 1892 Rocket 4.4 18:40:55 10° SSE 18:44:10 30° ESE 18:44:10 30° ESE
YAOGAN 1 3.0 18:40:50 10° S 18:45:07 65° WSW 18:49:27 10° NNW
MTI 3.7 18:44:45 33° N 18:46:07 87° WNW 18:49:21 10° SSW
EO 1 Del DPAF 3.1 18:45:57 35° NNE 18:47:24 66° E 18:51:11 10° S
Cosmos 2251 Rocket 3.6 18:42:22 10° N 18:47:32 51° ENE 18:52:37 10° SE
Cosmos 1697 Rocket 2.8 18:42:07 10° SSW 18:47:45 74° WNW 18:52:23 16° NNE
ERS-2 2.0 18:49:20 10° SSE 18:53:00 90° N 18:56:42 10° NNW
COSMOS 2455 4.3 18:51:41 10° N 18:54:54 19° NNE 18:54:54 19° NNE
Landsat 4 4.3 18:56:00 18° N 18:58:42 58° WNW 19:02:26 10° SSW
PSLV R/B 3.8 18:55:44 10° W 18:58:47 47° S 18:58:47 47° S
COSMO-SKYMED 1 2.8 18:58:12 16° N 19:01:41 69° WNW 19:05:58 10° SSW
SJ 16-02 3.3 18:58:05 10° WSW 19:01:48 26° WNW 19:05:34 10° N
CZ-4 R/B 3.6 19:00:12 10° SSW 19:03:28 26° W 19:06:50 10° NW
Abrixas rocket 3.7 19:04:20 10° WNW 19:06:20 29° NW 19:06:20 29° NW
S3M 3.9 19:02:33 10° SSE 19:08:29 56° E 19:11:13 31° NNE
Cosmos 1025 Rocket 4.3 19:18:03 10° SW 19:22:04 38° WNW 19:25:14 15° NNW
FengYun 1-2 T 4.1 19:23:18 10° SSE 19:28:55 83° ENE 19:34:36 10° NNW
Cosmos 1980 Rocket 2.6 19:24:11 10° SW 19:29:46 59° WNW 19:32:15 33° N
Cosmos 1066 Rocket 4.3 19:29:56 10° SSW 19:35:25 70° WNW 19:37:35 37° N
Cosmos 1553 Rocket 4.1 19:34:24 10° SSW 19:40:48 76° W 19:45:46 18° N
Meteor 1-22 Rocket 4.2 19:40:02 10° NNW 19:45:59 81° W 19:51:39 10° S
Cosmos 1745 Rocket 4.1 19:47:10 10° NNW 19:53:22 71° W 19:59:35 10° S
CENTAUR R/B 3.5 19:56:08 10° NW 20:03:59 62° WSW 20:09:41 22° SSE
Lacrosse 5 rocket 3.9 20:00:06 10° SW 20:01:04 17° SW 20:01:04 17° SW
Cosmos 2263 Rocket 3.8 20:07:22 10° NNW 20:09:39 26° NNW 20:09:39 26° NNW
SL-16 R/B 3.4 20:08:16 10° SSW 20:11:33 36° SW 20:11:33 36° SW
Cosmos 2322 Rocket 3.5 20:11:54 10° SSW 20:14:52 32° SW 20:14:52 32° SW
Cosmos 2344 3.8 20:26:08 10° SW 20:32:09 61° SW 20:32:09 61° SW
